Change the Weather History Date:

Monday, August 19, 2013

  Actual Average Record
Temperature  
Mean Temperature 78 °F -  
Max Temperature 86 °F 76 °F 100 °F (1976)
Min Temperature 69 °F 54 °F 37 °F (2002)
Cooling Degree Days 12    
Growing Degree Days 28 (Base 50)    
Moisture  
Dew Point 66 °F    
Average Humidity 69    
Maximum Humidity 78    
Minimum Humidity 58    
Precipitation  
Precipitation 0.00 in - - ()
Sea Level Pressure  
Sea Level Pressure 29.91 in    
Wind  
Wind Speed 7 mph (South)    
Max Wind Speed 10 mph    
Max Gust Speed 20 mph    
Visibility 10 miles    
Events Rain    
Averages and records for this station are not official NWS values.
T = Trace of Precipitation, MM = Missing Value Source: NWS Daily Summary

Daily Weather History Graph

Daily Weather History Graph

Search for Another Location

Airport or City:

Trip Planner

Search our weather history database for the weather conditions in past years. The results will help you decide how hot, cold, wet, or windy it might be!

Date:

Astronomy

Aug. 19, 2013 Rise Set
Actual Time 6:18 AM CDT 8:17 PM CDT
Civil Twilight 5:45 AM CDT 8:49 PM CDT
Nautical Twilight 5:05 AM CDT 9:29 PM CDT
Astronomical Twilight 4:21 AM CDT 10:13 PM CDT
Moon 7:08 PM CDT (8/19) 4:36 AM CDT (8/19)
Length of Visible Light 15h 03m
Length of Day
13h 58m
Waxing Gibbous, 97% of the Moon is Illuminated
Aug 19
Waxing Gibbous
Aug 20
Full
Aug 28
Last Quarter
Sep 5
New
Sep 12
First Quarter

Hourly Weather History & Observations

Time (CDT) Temp. Heat Index Dew Point Humidity Pressure Visibility Wind Dir Wind Speed Gust Speed Precip Events Conditions
12:13 AM 71.6 °F - 59.0 °F 64% 29.96 in 10.0 mi South 6.9 mph - N/A   Clear
12:33 AM 71.6 °F - 59.0 °F 64% 29.95 in 10.0 mi South 8.1 mph - N/A   Clear
12:52 AM 71.6 °F - 59.0 °F 64% 29.94 in 10.0 mi SSW 8.1 mph - N/A   Clear
1:13 AM 71.6 °F - 59.0 °F 64% 29.94 in 10.0 mi SSW 9.2 mph 17.3 mph N/A   Clear
1:33 AM 71.6 °F - 59.0 °F 64% 29.94 in 10.0 mi SSW 10.4 mph 19.6 mph N/A   Clear
1:52 AM 73.4 °F - 60.8 °F 65% 29.94 in 10.0 mi SSW 8.1 mph - N/A   Clear
2:13 AM 73.4 °F - 60.8 °F 65% 29.94 in 10.0 mi SSW 9.2 mph - N/A   Clear
2:33 AM 71.6 °F - 60.8 °F 69% 29.93 in 10.0 mi SSW 10.4 mph 17.3 mph N/A   Clear
2:52 AM 71.6 °F - 60.8 °F 69% 29.92 in 10.0 mi SSW 10.4 mph 16.1 mph N/A   Clear
3:13 AM 71.6 °F - 60.8 °F 69% 29.93 in 10.0 mi SW 9.2 mph - N/A   Light Drizzle
3:33 AM 71.6 °F - 60.8 °F 69% 29.93 in 10.0 mi SSW 9.2 mph - N/A Rain Light Rain
3:52 AM 71.6 °F - 62.6 °F 73% 29.93 in 10.0 mi SSW 3.5 mph - N/A Rain Light Rain
4:13 AM 69.8 °F - 62.6 °F 78% 29.92 in 10.0 mi South 4.6 mph - N/A   Mostly Cloudy
4:33 AM 69.8 °F - 60.8 °F 73% 29.91 in 10.0 mi South 5.8 mph - N/A   Scattered Clouds
4:52 AM 69.8 °F - 60.8 °F 73% 29.91 in 10.0 mi South 4.6 mph - N/A   Clear
5:13 AM 69.8 °F - 60.8 °F 73% 29.90 in 10.0 mi South 4.6 mph - N/A   Clear
5:32 AM 69.8 °F - 60.8 °F 73% 29.89 in 10.0 mi SSW 5.8 mph - N/A   Clear
5:53 AM 69.8 °F - 62.6 °F 78% 29.90 in 10.0 mi SSW 9.2 mph - N/A   Scattered Clouds
6:13 AM 69.8 °F - 62.6 °F 78% 29.90 in 10.0 mi SSW 8.1 mph - N/A   Clear
6:32 AM 69.8 °F - 62.6 °F 78% 29.90 in 10.0 mi SSW 3.5 mph - N/A   Scattered Clouds
6:53 AM 69.8 °F - 62.6 °F 78% 29.90 in 10.0 mi SSW 3.5 mph - N/A   Scattered Clouds
7:13 AM 69.8 °F - 62.6 °F 78% 29.91 in 10.0 mi SW 4.6 mph - N/A   Clear
7:32 AM 69.8 °F - 62.6 °F 78% 29.92 in 10.0 mi SSW 4.6 mph - N/A   Clear
7:53 AM 69.8 °F - 62.6 °F 78% 29.92 in 10.0 mi South 3.5 mph - N/A   Clear
8:13 AM 71.6 °F - 62.6 °F 73% 29.93 in 10.0 mi Calm Calm - N/A   Clear
8:32 AM 71.6 °F - 62.6 °F 73% 29.93 in 10.0 mi Calm Calm - N/A   Clear
8:53 AM 73.4 °F - 64.4 °F 73% 29.93 in 10.0 mi South 5.8 mph - N/A   Clear
9:13 AM 73.4 °F - 64.4 °F 73% 29.93 in 10.0 mi South 5.8 mph - N/A   Clear
9:32 AM 73.4 °F - 64.4 °F 73% 29.94 in 10.0 mi South 4.6 mph - N/A   Clear
9:53 AM 75.2 °F - 64.4 °F 69% 29.94 in 10.0 mi SSW 4.6 mph - N/A   Scattered Clouds
10:13 AM 75.2 °F - 64.4 °F 69% 29.94 in 10.0 mi Calm Calm - N/A   Scattered Clouds
10:33 AM 75.2 °F - 66.2 °F 73% 29.93 in 10.0 mi South 3.5 mph - N/A   Clear
10:53 AM 78.8 °F - 66.2 °F 65% 29.93 in 10.0 mi SE 6.9 mph - N/A   Clear
11:12 AM 78.8 °F - 66.2 °F 65% 29.93 in 10.0 mi South 4.6 mph - N/A   Clear
11:33 AM 78.8 °F - 68.0 °F 69% 29.93 in 10.0 mi South 8.1 mph - N/A   Clear
11:53 AM 80.6 °F 83.2 °F 68.0 °F 65% 29.93 in 10.0 mi South 9.2 mph - N/A   Clear
12:12 PM 80.6 °F 83.2 °F 68.0 °F 65% 29.93 in 10.0 mi SSE 9.2 mph - N/A   Clear
12:33 PM 80.6 °F 83.2 °F 68.0 °F 65% 29.93 in 10.0 mi SSE 10.4 mph - N/A   Clear
12:52 PM 80.6 °F 83.2 °F 68.0 °F 65% 29.92 in 10.0 mi SSE 9.2 mph - N/A   Clear
1:13 PM 82.4 °F 86.3 °F 69.8 °F 66% 29.92 in 10.0 mi South 6.9 mph - N/A   Clear
1:33 PM 84.2 °F 88.4 °F 69.8 °F 62% 29.92 in 10.0 mi SSE 9.2 mph - N/A   Clear
1:52 PM 84.2 °F 88.4 °F 69.8 °F 62% 29.91 in 10.0 mi South 9.2 mph - N/A   Clear
2:12 PM 84.2 °F 88.4 °F 69.8 °F 62% 29.91 in 10.0 mi South 9.2 mph - N/A   Clear
2:33 PM 84.2 °F 88.4 °F 69.8 °F 62% 29.91 in 10.0 mi SSE 10.4 mph - N/A   Clear
2:52 PM 84.2 °F 88.4 °F 69.8 °F 62% 29.91 in 10.0 mi South 8.1 mph - N/A   Scattered Clouds
3:12 PM 84.2 °F 88.4 °F 69.8 °F 62% 29.91 in 10.0 mi South 8.1 mph - N/A   Scattered Clouds
3:33 PM 84.2 °F 88.4 °F 69.8 °F 62% 29.90 in 10.0 mi South 8.1 mph 16.1 mph N/A   Clear
3:52 PM 86.0 °F 90.4 °F 69.8 °F 58% 29.90 in 10.0 mi South 8.1 mph - N/A   Scattered Clouds
4:12 PM 84.2 °F 88.4 °F 69.8 °F 62% 29.89 in 10.0 mi SSE 10.4 mph - N/A   Scattered Clouds
4:33 PM 86.0 °F 90.4 °F 69.8 °F 58% 29.89 in 10.0 mi South 6.9 mph - N/A   Scattered Clouds
4:52 PM 86.0 °F 90.4 °F 69.8 °F 58% 29.89 in 10.0 mi SSW 9.2 mph - N/A   Mostly Cloudy
5:12 PM 84.2 °F 88.4 °F 69.8 °F 62% 29.88 in 10.0 mi South 6.9 mph - N/A   Scattered Clouds
5:33 PM 84.2 °F 88.4 °F 69.8 °F 62% 29.88 in 10.0 mi SSE 6.9 mph - N/A   Scattered Clouds
5:53 PM 84.2 °F 88.4 °F 69.8 °F 62% 29.87 in 10.0 mi SSE 5.8 mph - N/A   Scattered Clouds
6:12 PM 84.2 °F 88.4 °F 69.8 °F 62% 29.87 in 10.0 mi SSE 4.6 mph - N/A   Clear
6:33 PM 84.2 °F 88.4 °F 69.8 °F 62% 29.87 in 10.0 mi SSE 8.1 mph - N/A   Clear
6:53 PM 82.4 °F 86.3 °F 69.8 °F 66% 29.87 in 10.0 mi South 8.1 mph - N/A   Clear
7:12 PM 82.4 °F 86.3 °F 69.8 °F 66% 29.87 in 10.0 mi South 5.8 mph - N/A   Clear
7:33 PM 80.6 °F 83.9 °F 69.8 °F 70% 29.87 in 10.0 mi South 5.8 mph - N/A   Clear
7:53 PM 80.6 °F 83.9 °F 69.8 °F 70% 29.87 in 10.0 mi SSE 5.8 mph - N/A   Clear
8:12 PM 78.8 °F - 68.0 °F 69% 29.87 in 10.0 mi South 4.6 mph - N/A   Clear
8:33 PM 77.0 °F - 68.0 °F 74% 29.88 in 10.0 mi South 5.8 mph - N/A   Clear
8:53 PM 77.0 °F - 68.0 °F 74% 29.89 in 10.0 mi South 5.8 mph - N/A   Clear
9:12 PM 77.0 °F - 68.0 °F 74% 29.89 in 10.0 mi SSE 5.8 mph - N/A   Clear
9:33 PM 75.2 °F - 68.0 °F 78% 29.89 in 10.0 mi South 6.9 mph - N/A   Clear
9:53 PM 77.0 °F - 68.0 °F 74% 29.89 in 10.0 mi South 6.9 mph - N/A   Clear
10:12 PM 77.0 °F - 68.0 °F 74% 29.89 in 10.0 mi South 6.9 mph - N/A   Clear
10:33 PM 75.2 °F - 68.0 °F 78% 29.89 in 10.0 mi South 5.8 mph - N/A   Clear
10:53 PM 75.2 °F - 68.0 °F 78% 29.89 in 10.0 mi South 6.9 mph - N/A   Clear
11:12 PM 75.2 °F - 68.0 °F 78% 29.89 in 10.0 mi South 4.6 mph - N/A   Clear
11:33 PM 75.2 °F - 68.0 °F 78% 29.88 in 10.0 mi South 6.9 mph - N/A   Clear
11:53 PM 75.2 °F - 68.0 °F 78% 29.88 in 10.0 mi South 5.8 mph - N/A   Clear